(344582) = 2003 BE7

Discovered at Anderson Mesa on 2003-01-25 by LONEOS.

Orbit

Orbit type: Main Belt

Note: WebGL enabled browser required.

epoch2023-09-13.0
epoch JD2460200.5
perihelion date2025-01-02.09862
perihelion JD2460677.59862
argument of perihelion (°)133.79953
ascending node (°)311.54984
inclination (°)5.85826
eccentricity0.1207814
perihelion distance (AU)2.1062096
Tisserand w.r.t. Jupiter3.5
ΔV w.r.t. Earth (km/sec)9.2
semimajor axis (AU)2.3955472
mean anomaly (°)233.17499
mean daily motion (°/day)0.26582560
aphelion distance (AU)2.685
period (years)3.71
P-vector [x]0.07825874
P-vector [y]0.88286359
P-vector [z]0.46306312
Q-vector [x]-0.99400243
Q-vector [y]0.10468988
Q-vector [z]-0.03161017
absolute magnitude17.37
phase slope0.15
uncertainty0
referenceMPEC 2023-N43
observations used327
oppositions11
arc length (days)7487
first opposition used2003
last opposition used2023
residual rms (arc-secs)0.69
perturbers coarse indicatorM-v
perturbers precise indicator003Ek
first observation date used2003-01-08.0
last observation date used2023-07-09.0
computer nameMPCLINUX
JD of orbit computation2456731.550778
perihelion JD uncertainty (days)8.2598E-05
argument of perihelion uncertainty (°)5.5029E-05
ascending node uncertainty (°)4.8709E-05
inclination uncertainty (°)6.0019E-06
eccentricity uncertainty 6.2491E-08
perihelion distance uncertainty (AU)1.5290E-07
Minimum Orbit Intersection Distances (in AU)
for orbit epoch: 2460000.5, reference: E2023-N43
Mercury1.79845
Venus1.38909
Earth1.12706
Mars0.5111
Jupiter2.4943
Saturn6.96069
Uranus16.071
Neptune27.5289

Observations

337 total observations over interval: 2003 01 08.32466 – 2023 07 09.482844
These data are available for download (format description).

Date (UT) J2000 RA J2000 Dec Magn Location Ref
2003 01 08.32466 08 51 16.15 +19 53 33.3 19.6   704 – Lincoln Laboratory ETS, New Mexico MPS 73334
2003 01 08.33952 08 51 15.41 +19 53 35.0 20.0   704 – Lincoln Laboratory ETS, New Mexico MPS 73334
2003 01 08.35411 08 51 14.50 +19 53 33.1 20.2   704 – Lincoln Laboratory ETS, New Mexico MPS 73334
2003 01 08.36879 08 51 13.67 +19 53 34.5 20.2   704 – Lincoln Laboratory ETS, New Mexico MPS 73334
2003 01 08.38347 08 51 12.85 +19 53 35.5 20.2   704 – Lincoln Laboratory ETS, New Mexico MPS 73334
2003 01 14.39644 08 45 25.96 +19 56 22.4 20.4   608 – Haleakala-AMOS MPS 71874
2003 01 14.40671 08 45 25.31 +19 56 23.2 20.9   608 – Haleakala-AMOS MPS 71874
2003 01 14.41695 08 45 24.61 +19 56 23.8 20.9   608 – Haleakala-AMOS MPS 71874
2003 01 25.25144 08 33 33.98 +20 01 26.8 18.7 R 699 – Lowell Observatory-LONEOS MPS 71874
2003 01 25.26577 08 33 32.81 +20 01 29.1   699 – Lowell Observatory-LONEOS MPS 71874
2003 01 25.28003 08 33 31.92 +20 01 28.6   699 – Lowell Observatory-LONEOS MPS 71874
2003 01 25.29436 08 33 30.85 +20 01 28.8   699 – Lowell Observatory-LONEOS MPS 71874
2003 01 27.19406 08 31 22.50 +20 02 01.5 18.9 R 699 – Lowell Observatory-LONEOS MPS 71874
2003 01 27.21192 08 31 21.22 +20 02 02.8   699 – Lowell Observatory-LONEOS MPS 71874
2003 01 27.29903 08 31 15.14 +20 02 04.5   699 – Lowell Observatory-LONEOS MPS 71874
2003 01 27.31696 08 31 13.89 +20 02 04.0   699 – Lowell Observatory-LONEOS MPS 71874
2003 01 27.40265 08 31 08.29 +20 02 07.0 20.7   608 – Haleakala-AMOS MPS 73334
2003 01 27.41379 08 31 07.48 +20 02 07.0 20.3   608 – Haleakala-AMOS MPS 73334
2003 01 27.42469 08 31 06.75 +20 02 07.4 20.4   608 – Haleakala-AMOS MPS 73334
2003 01 31.32478 08 26 45.62 +20 02 37.5 19.6   704 – Lincoln Laboratory ETS, New Mexico MPS 71874
2003 01 31.33876 08 26 44.69 +20 02 38.6 20.1   704 – Lincoln Laboratory ETS, New Mexico MPS 71874
2003 01 31.35274 08 26 43.79 +20 02 37.9 19.6   704 – Lincoln Laboratory ETS, New Mexico MPS 71874
2003 01 31.36673 08 26 42.79 +20 02 38.8 19.8   704 – Lincoln Laboratory ETS, New Mexico MPS 71874
2003 02 07.26468 08 19 28.55 +20 01 17.2 19.8 R 699 – Lowell Observatory-LONEOS MPS 73334
2003 02 07.28036 08 19 27.73 +20 01 17.1 20.6 R 699 – Lowell Observatory-LONEOS MPS 73334
2009 10 26.39268 03 06 03.99 +28 22 34.9 19.6 V G96 – Mt. Lemmon Survey MPS 307248
2009 10 26.39970 03 06 03.56 +28 22 33.9 19.7 V G96 – Mt. Lemmon Survey MPS 307248
2009 10 26.40655 03 06 03.16 +28 22 33.6 19.7 V G96 – Mt. Lemmon Survey MPS 307248
2009 10 26.41351 03 06 02.77 +28 22 32.7 19.5 V G96 – Mt. Lemmon Survey MPS 307248
2009 11 08.23843 02 53 01.68 +27 44 43.5 19.4 V G96 – Mt. Lemmon Survey MPS 307248
2009 11 08.24455 02 53 01.28 +27 44 42.1 19.5 V G96 – Mt. Lemmon Survey MPS 307248
2009 11 08.25075 02 53 00.85 +27 44 40.4 19.4 V G96 – Mt. Lemmon Survey MPS 307248
2009 11 08.25699 02 53 00.42 +27 44 38.8 19.6 V G96 – Mt. Lemmon Survey MPS 307248
2009 11 26.24190 02 35 20.18 +26 03 23.6 19.6 V G96 – Mt. Lemmon Survey MPS 307248
2009 11 26.24715 02 35 19.89 +26 03 21.6 19.6 V G96 – Mt. Lemmon Survey MPS 307248
2009 11 26.25240 02 35 19.64 +26 03 19.7 19.6 V G96 – Mt. Lemmon Survey MPS 307248
2009 11 26.25753 02 35 19.39 +26 03 17.6 19.4 V G96 – Mt. Lemmon Survey MPS 307248
2009 11 26.26271 02 35 19.10 +26 03 15.6 19.6 V G96 – Mt. Lemmon Survey MPS 307248
2009 12 11.79840 02 26 36.12 +24 26 37.1 19.6 V J75 – OAM Observatory, La Sagra MPS 307248
2009 12 11.81108 02 26 36.02 +24 26 33.0 19.4 V J75 – OAM Observatory, La Sagra MPS 307248
2009 12 11.82374 02 26 35.67 +24 26 27.7 19.5 V J75 – OAM Observatory, La Sagra MPS 307248
2010 01 06.20685 02 30 59.97 +22 49 11.7 20.3 V G96 – Mt. Lemmon Survey MPS 309268
2010 01 06.21397 02 31 00.22 +22 49 10.8 20.4 V G96 – Mt. Lemmon Survey MPS 309268
2010 01 06.22105 02 31 00.48 +22 49 09.9 20.6 V G96 – Mt. Lemmon Survey MPS 309268
2010 01 06.22826 02 31 00.73 +22 49 09.1 20.1 V G96 – Mt. Lemmon Survey MPS 309268
2011 04 13.31030 13 29 08.08 -19 21 46.0 19.6 V G96 – Mt. Lemmon Survey MPS 378587
2011 04 13.31809 13 29 07.47 -19 21 43.7 20.7 V G96 – Mt. Lemmon Survey MPS 378587
2011 04 13.32596 13 29 06.97 -19 21 40.7 20.2 V G96 – Mt. Lemmon Survey MPS 378587
2011 04 13.33380 13 29 06.50 -19 21 39.0 20.5 V G96 – Mt. Lemmon Survey MPS 378587
2011 04 28.34156 13 14 43.647 -18 00 59.20 21.0 w F51 – Pan-STARRS 1, Haleakala MPS 380012
2011 04 28.35565 13 14 42.868 -18 00 54.33 21.0 w F51 – Pan-STARRS 1, Haleakala MPS 380012
2011 04 28.36988 13 14 42.097 -18 00 49.39 21.1 w F51 – Pan-STARRS 1, Haleakala MPS 380012
2011 04 28.38398 13 14 41.322 -18 00 44.58 21.0 w F51 – Pan-STARRS 1, Haleakala MPS 380012
2011 05 09.23090 13 06 24.94 -16 57 56.6 21.1 V G96 – Mt. Lemmon Survey MPS 382118
2011 05 09.23896 13 06 24.69 -16 57 53.6 21.6 V G96 – Mt. Lemmon Survey MPS 382118
2011 05 09.24708 13 06 24.30 -16 57 50.8 21.2 V G96 – Mt. Lemmon Survey MPS 382118
2011 05 09.25510 13 06 24.01 -16 57 48.2 20.9 V G96 – Mt. Lemmon Survey MPS 382118
2012 07 28.45402 20 54 22.275 -17 55 39.63 20.3 i F51 – Pan-STARRS 1, Haleakala MPS 428913
2012 07 28.46461 20 54 21.600 -17 55 40.59 19.9 i F51 – Pan-STARRS 1, Haleakala MPS 428913
2012 11 04.226826 20 41 23.918 -16 02 09.95 22.0 w F51 – Pan-STARRS 1, Haleakala MPS 439450
2012 11 04.232363 20 41 24.233 -16 02 08.42 21.9 w F51 – Pan-STARRS 1, Haleakala MPS 439450
2012 11 04.237878 20 41 24.567 -16 02 06.80 21.9 w F51 – Pan-STARRS 1, Haleakala MPS 439450
2013 12 04.43369 07 20 35.616 +28 38 29.88 19.6 w F51 – Pan-STARRS 1, Haleakala MPS 490927
2013 12 04.43501 07 20 35.575 +28 38 29.88 19.5 w F51 – Pan-STARRS 1, Haleakala MPS 490927
2013 12 04.44765 07 20 35.160 +28 38 30.20 19.6 w F51 – Pan-STARRS 1, Haleakala MPS 490927
2013 12 04.44897 07 20 35.116 +28 38 30.21 19.5 w F51 – Pan-STARRS 1, Haleakala MPS 490927
2013 12 04.46165 07 20 34.702 +28 38 30.46 19.6 w F51 – Pan-STARRS 1, Haleakala MPS 490927
2013 12 04.46299 07 20 34.658 +28 38 30.49 19.5 w F51 – Pan-STARRS 1, Haleakala MPS 490927
2013 12 04.47564 07 20 34.239 +28 38 30.84 19.5 w F51 – Pan-STARRS 1, Haleakala MPS 490927
2013 12 04.47697 07 20 34.199 +28 38 30.82 19.5 w F51 – Pan-STARRS 1, Haleakala MPS 490927
2013 12 04.72899 07 20 26.46 +28 38 33.1 20.2 R D29 – Purple Mountain Observatory, XuYi Station MPS 490927
2013 12 04.74490 07 20 25.95 +28 38 33.2 19.7 R D29 – Purple Mountain Observatory, XuYi Station MPS 490927
2013 12 04.76081 07 20 25.42 +28 38 33.3 19.9 R D29 – Purple Mountain Observatory, XuYi Station MPS 490927
2013 12 09.70624 07 17 25.40 +28 39 21.2 20.1 R D29 – Purple Mountain Observatory, XuYi Station MPS 491981
2013 12 09.72215 07 17 24.68 +28 39 21.3 19.5 R D29 – Purple Mountain Observatory, XuYi Station MPS 491981
2013 12 09.73806 07 17 23.96 +28 39 21.8 19.5 R D29 – Purple Mountain Observatory, XuYi Station MPS 491981
2013 12 13.29873 07 14 41.45 +28 39 23.4 19.3 r I41 – Palomar Mountain--ZTF MPS 493350
2013 12 13.34089 07 14 39.26 +28 39 23.4 19.4 r I41 – Palomar Mountain--ZTF MPS 493350
2013 12 13.38351 07 14 37.04 +28 39 23.5 19.3 r I41 – Palomar Mountain--ZTF MPS 493350
2013 12 13.42507 07 14 34.84 +28 39 23.1 19.3 r I41 – Palomar Mountain--ZTF MPS 493350
2013 12 13.46801 07 14 32.60 +28 39 22.7 19.3 r I41 – Palomar Mountain--ZTF MPS 493350
2013 12 13.51001 07 14 30.41 +28 39 22.0 19.3 r I41 – Palomar Mountain--ZTF MPS 493350
2013 12 13.55212 07 14 28.22 +28 39 21.1 19.3 r I41 – Palomar Mountain--ZTF MPS 493350
2013 12 22.54589 07 05 51.192 +28 35 47.00 18.9 i F51 – Pan-STARRS 1, Haleakala MPS 493350
2013 12 22.55970 07 05 50.262 +28 35 46.23 18.9 i F51 – Pan-STARRS 1, Haleakala MPS 493350
2013 12 24.29235 07 03 57.78 +28 34 16.0 19.7 R 926 – Tenagra II Observatory, Nogales MPS 493350
2013 12 24.30823 07 03 56.69 +28 34 15.7 19.9 R 926 – Tenagra II Observatory, Nogales MPS 493350
2013 12 24.32382 07 03 55.59 +28 34 14.8 19.8 R 926 – Tenagra II Observatory, Nogales MPS 493350
2013 12 30.30064 06 57 05.96 +28 26 42.0 19.0 V G96 – Mt. Lemmon Survey MPS 495206
2013 12 30.30866 06 57 05.35 +28 26 41.5 19.2 V G96 – Mt. Lemmon Survey MPS 495206
2013 12 30.32468 06 57 04.17 +28 26 40.1 19.1 V G96 – Mt. Lemmon Survey MPS 495206
2014 01 06.48398 06 48 39.837 +28 12 18.13 19.4 g F51 – Pan-STARRS 1, Haleakala MPS 496522
